{"data":{"norad_id":81254,"epoch":"2026-05-23T17:18:05.130144Z","epoch_age_seconds":196149,"freshness":"STALE","line1":"1 81254U          26143.72089271  .00002790  00000+0  18003-2 0  9993","line2":"2 81254 100.3799 233.1033 0070178   4.7621 355.4193 14.02777796635597","mean_motion":14.02777796,"eccentricity":0.0070178,"inclination_deg":100.3799,"raan_deg":233.1033,"arg_perigee_deg":4.7621,"mean_anomaly_deg":355.4193,"bstar":0.0018003,"rev_number":63559,"period_min":102.65346401306,"perigee_km":833.22642386745,"apogee_km":935.15756872789,"semimajor_km":7262.3289962977,"source":"CELESTRAK","updated_at":"2026-05-25T13:38:09.447522Z"}}